{"data":{"norad_id":68180,"intl_designator":"2026-050P","name":"STARLINK-37035","alt_names":[],"object_type":"PAYLOAD","status":"ACTIVE","operator":null,"country":"US","launch_date":"2026-03-14","launch_site_code":"AFETR","launch_vehicle":null,"mission":null,"orbit_class":"UNKNOWN","rcs_meters":null,"size_class":null,"mass_kg":null,"dimensions":null,"purposes":["comms"],"wikipedia_slug":null,"has_3d_model":false,"image_url":null,"decayed_at":null,"tle_current":{"epoch":"2026-09-19T21:08:47.308704Z","epoch_age_seconds":109627,"freshness":"FRESH","line1":"1 68180U 26050P   26262.88110311  .00015575  00000+0  47106-3 0  9990","line2":"2 68180  53.1586  80.5720 0001277  87.7480 272.3669 15.34406081 30477","mean_motion":15.34406081,"eccentricity":0.0001277,"inclination_deg":53.1586,"raan_deg":80.572,"arg_perigee_deg":87.748,"mean_anomaly_deg":272.3669,"bstar":0.00047106,"rev_number":3047,"period_min":93.847386153575,"perigee_km":461.81159326265,"apogee_km":463.55873924391,"semimajor_km":6840.8221662533,"source":"CELESTRAK","updated_at":"2026-09-20T09:00:43.801213Z"}}}